User: anonymous   Login
Location: Newark
(48.6461°N, 4.3644°W)
Time: 14:49:35
(UTC+00:00)
Language:

Hubble Space Telescope - Orbit

View from above orbital plane
View from above orbital plane
View from above satellite
View from above satellite

Ground track
Ground track

The orbit data is extracted from the following two-line orbital elements,

1 20580U 90037B   20020.85819042  .00000367  00000-0  11342-4 0  9996
2 20580  28.4681 222.4444 0002570 293.8376 199.3593 15.09327816433584
Epoch (UTC): 20 January 2020 20:35:47
Eccentricity: 0.0002570
inclination: 28.4681°
perigee height: 536 km
apogee height: 540 km
right ascension of ascending node: 222.4444°
argument of perigee: 293.8376°
revolutions per day: 15.09327816
mean anomaly at epoch: 199.3593°
orbit number at epoch: 43358

The dashed part of the orbit path shows where the satellite is in the earth's shadow,  

DLR